Location: Guferjoch
(46.7462°N, 8.4506°E)
Time: 13:24:27
(UTC+00:00)

Cosmos 1802 Rocket - Pass Details

Date: 14 July 2020
Orbit: 954 x 1011 km, 82.9° (Epoch: 07 August)

Event Time Altitude Azimuth Distance (km) Brightness Sun altitude
Exits shadow 01:03:01 28° 182° (S) 1,781 4.8 -18.6°
Maximum altitude 01:06:38 83° 97° (E) 1,021 4.1 -18.4°
Drops below altitude 10° 01:13:06 10° 10° (N) 2,803 7.6 -17.9°
Sets 01:15:39 0° 10° (N) 3,758 8.5 -17.7°
